SCP
0 0 0 0 0 0 0 0 0 0 0 0 0 0 0 0 1 0 0 0 0 0
0 0 0 0 0 0 0 0 0 0 0 0 0 0 0 0 0 0 0 0 0 0
0 0 0 0 0 0 0 0 0 0 0 0 0 0 0 0 0 0 0 0 0 0
0 0 0 0 0 0 0 0 0 0 0 0 0 0 0 0 0 0 0 0 0 0
0 0 0 0 0 0 0 0 0 0 0 0 0 0 0 0 0 0 0 0 0 0
0 0 0 0 0 0 0 0 0 0 0 0 0 0 0 0 0 0 0 0 0 0
0 0 0 0 0 0 0 0 0 0 0 0 0 -0 -0 0 0 0 0 0 0 0
0 0 0 0 0 0 0 0 0 0 0 0 -0 -0 -0 0 0 0 0 0 0 0
0 0 0 0 0 0 0 0 0 0 0 0 0 -0 -0 0 0 0 0 0 0 0
0 0 0 0 0 0 0 0 0 0 0 0 -0 -0 -0 -0 0 0 0 0 0 0
0 0 0 0 0 0 0 0 0 0 0 0 0 -0 -0 0 0 0 0 0 0 0
0 0 0 0 0 0 0 0 0 0 0 0 0 -0 -0 0 -0 -0 0 0 0 0
0 0 0 0 0 0 0 0 0 -0 0 0 0 -0 -0 0 0 0 0 0 0 0
0 0 0 0 0 0 0 0 0 -0 -0 -0 0 -0 -0 -0 0 0 0 0 0 0
Wind_Speed_500mb
77 76 71 64 70 72 65 60 64 62 57 57 62 51 49 51 60 56 52 42 38 32
72 65 66 65 58 58 51 55 57 56 59 55 48 50 43 44 45 47 48 51 46 42
63 61 56 55 55 54 55 55 53 49 48 50 46 51 46 44 43 43 43 40 44 46
64 57 51 49 48 48 51 52 53 54 53 44 38 33 47 44 46 47 45 41 37 41
58 47 47 47 49 50 52 52 52 51 45 42 36 35 32 42 50 48 44 38 38 33
43 45 49 49 52 46 52 55 49 43 39 38 38 36 29 27 36 53 55 52 46 36
45 48 49 53 58 49 51 49 46 37 40 36 34 29 31 29 31 32 35 40 42 38
50 52 52 57 53 52 52 43 35 35 32 28 33 31 26 27 31 28 30 36 37 38
53 51 55 51 51 52 48 43 34 29 28 28 30 28 26 30 26 28 28 27 31 32
52 54 55 51 46 52 47 42 35 27 24 22 20 16 19 22 23 24 28 29 29 30
48 57 54 45 50 47 47 46 35 23 22 23 21 19 23 19 23 27 26 26 30 34
53 58 53 49 45 43 44 49 46 24 22 22 22 25 22 33 29 31 34 31 27 27
51 55 53 50 50 44 34 34 40 22 19 21 21 22 26 25 31 33 31 28 23 31
51 56 54 53 48 42 26 33 35 18 10 11 13 18 28 29 27 28 32 27 32 34
Wind_Direction_500mb
307 308 306 304 303 304 302 304 307 303 293 284 281 283 268 255 243 244 248 246 247 245
310 310 307 305 307 309 308 310 308 303 301 298 283 269 266 257 242 241 240 235 235 246
311 312 308 307 309 306 301 300 301 297 295 297 293 266 255 249 245 239 239 236 235 238
313 313 311 311 309 308 305 306 299 299 295 296 294 287 259 247 240 240 243 248 250 245
313 312 310 308 310 310 310 304 299 296 295 288 289 288 271 252 240 235 239 248 254 246
319 316 317 314 317 313 313 310 298 293 293 286 286 281 270 260 243 244 248 248 243 245
325 323 322 322 322 316 317 310 306 293 277 275 283 270 262 257 248 247 240 233 236 240
324 325 328 328 327 320 324 316 309 293 280 277 278 260 255 263 247 244 242 239 234 227
326 333 334 330 328 334 331 326 303 286 281 282 277 255 247 247 235 234 231 228 216 217
334 333 335 335 339 340 338 328 313 285 279 268 258 245 243 238 223 226 219 215 208 202
333 335 337 340 340 338 341 341 321 282 267 261 249 251 222 220 218 213 210 205 206 205
340 340 341 339 337 331 324 332 337 287 262 256 250 231 227 220 224 217 212 209 209 202
346 347 347 352 345 336 335 338 329 311 253 247 236 227 202 209 210 211 205 197 199 205
352 352 354 356 350 351 340 335 339 320 235 246 239 220 200 200 199 197 186 193 189 185
Wind_Speed_850mb
77 76 71 64 70 72 65 60 64 62 57 57 62 51 49 51 60 56 52 42 38 32
72 65 66 65 58 58 51 55 57 56 59 55 48 50 43 44 45 47 48 51 46 42
63 61 56 55 55 54 55 55 53 49 48 50 46 51 46 44 43 43 43 40 44 46
64 57 51 49 48 48 51 52 53 54 53 44 38 33 47 44 46 47 45 41 37 41
58 47 47 47 49 50 52 52 52 51 45 42 36 35 32 42 50 48 44 38 38 33
43 45 49 49 52 46 52 55 49 43 39 38 38 36 29 27 36 53 55 52 46 36
45 48 49 53 58 49 51 49 46 37 40 36 34 29 31 29 31 32 35 40 42 38
50 52 52 57 53 52 52 43 35 35 32 28 33 31 26 27 31 28 30 36 37 38
53 51 55 51 51 52 48 43 34 29 28 28 30 28 26 30 26 28 28 27 31 32
52 54 55 51 46 52 47 42 35 27 24 22 20 16 19 22 23 24 28 29 29 30
48 57 54 45 50 47 47 46 35 23 22 23 21 19 23 19 23 27 26 26 30 34
53 58 53 49 45 43 44 49 46 24 22 22 22 25 22 33 29 31 34 31 27 27
51 55 53 50 50 44 34 34 40 22 19 21 21 22 26 25 31 33 31 28 23 31
51 56 54 53 48 42 26 33 35 18 10 11 13 18 28 29 27 28 32 27 32 34
Wind_Direction_850mb
307 308 306 304 303 304 302 304 307 303 293 284 281 283 268 255 243 244 248 246 247 245
310 310 307 305 307 309 308 310 308 303 301 298 283 269 266 257 242 241 240 235 235 246
311 312 308 307 309 306 301 300 301 297 295 297 293 266 255 249 245 239 239 236 235 238
313 313 311 311 309 308 305 306 299 299 295 296 294 287 259 247 240 240 243 248 250 245
313 312 310 308 310 310 310 304 299 296 295 288 289 288 271 252 240 235 239 248 254 246
319 316 317 314 317 313 313 310 298 293 293 286 286 281 270 260 243 244 248 248 243 245
325 323 322 322 322 316 317 310 306 293 277 275 283 270 262 257 248 247 240 233 236 240
324 325 328 328 327 320 324 316 309 293 280 277 278 260 255 263 247 244 242 239 234 227
326 333 334 330 328 334 331 326 303 286 281 282 277 255 247 247 235 234 231 228 216 217
334 333 335 335 339 340 338 328 313 285 279 268 258 245 243 238 223 226 219 215 208 202
333 335 337 340 340 338 341 341 321 282 267 261 249 251 222 220 218 213 210 205 206 205
340 340 341 339 337 331 324 332 337 287 262 256 250 231 227 220 224 217 212 209 209 202
346 347 347 352 345 336 335 338 329 311 253 247 236 227 202 209 210 211 205 197 199 205
352 352 354 356 350 351 340 335 339 320 235 246 239 220 200 200 199 197 186 193 189 185